RUK955K EGNX-EGAA

Flight info

Callsign RUK955K
Flight time 0h 44m
Altitude 24000
Route TNT Q4 VABKA/N0377F280 UL8 BILVO UP6 TUPEM DCT REMSI DCT UVPOK M147 ROBOP M146 IPSET P6 BELZU
Aircraft B738/M-SDE2E3FGHIRWXY/LB1

Departure

Time 2026-04-28 19:47
Airport East Midlands Airport (EGNX)

Arrival

Time 2026-04-28 20:31
Airport Belfast International Airport (EGAA)
Time Latitude Longitude Altitude Speed Heading
2026-04-28 19:18 52.82729 -1.32934 302 ft 0 kts 178°
2026-04-28 19:37 52.82743 -1.32935 303 ft 4 kts 178°
2026-04-28 19:38 52.82764 -1.32936 303 ft 3 kts 179°
2026-04-28 19:38 52.82784 -1.32931 302 ft 4 kts 222°
2026-04-28 19:38 52.82796 -1.32901 301 ft 4 kts 251°
2026-04-28 19:38 52.82800 -1.32878 300 ft 0 kts 253°
2026-04-28 19:41 52.82799 -1.32883 300 ft 2 kts 253°
2026-04-28 19:41 52.82795 -1.32932 301 ft 7 kts 266°
2026-04-28 19:41 52.82792 -1.33044 300 ft 13 kts 268°
2026-04-28 19:42 52.82829 -1.33161 300 ft 13 kts 353°
2026-04-28 19:42 52.82914 -1.33180 302 ft 9 kts 317°
2026-04-28 19:42 52.82923 -1.33279 305 ft 9 kts 270°
2026-04-28 19:42 52.82921 -1.33345 305 ft 9 kts 267°
2026-04-28 19:43 52.82917 -1.33537 306 ft 15 kts 268°
2026-04-28 19:43 52.82914 -1.33713 303 ft 15 kts 269°
2026-04-28 19:43 52.82912 -1.33881 304 ft 14 kts 267°
2026-04-28 19:43 52.82908 -1.34050 300 ft 16 kts 268°
2026-04-28 19:44 52.82906 -1.34173 301 ft 16 kts 268°
2026-04-28 19:44 52.82906 -1.34353 307 ft 15 kts 271°
2026-04-28 19:44 52.82903 -1.34527 304 ft 15 kts 270°
2026-04-28 19:44 52.82946 -1.34664 302 ft 15 kts 351°
2026-04-28 19:45 52.83028 -1.34659 302 ft 12 kts 18°
2026-04-28 19:45 52.83069 -1.34564 301 ft 6 kts 89°
2026-04-28 19:45 52.83069 -1.34559 301 ft 0 kts 89°
2026-04-28 19:45 52.83069 -1.34556 301 ft 0 kts 89°
2026-04-28 19:46 52.83069 -1.34554 301 ft 1 kts 89°
2026-04-28 19:46 52.83074 -1.34327 299 ft 51 kts 87°
2026-04-28 19:46 52.83088 -1.33351 306 ft 116 kts 89°
2026-04-28 19:46 52.83153 -1.31784 569 ft 145 kts 83°
2026-04-28 19:47 52.83171 -1.30090 1247 ft 149 kts 88°
2026-04-28 19:47 52.83077 -1.28450 2050 ft 142 kts 91°
2026-04-28 19:47 52.83008 -1.26799 2669 ft 145 kts 86°
2026-04-28 19:47 52.83014 -1.25023 3023 ft 164 kts 85°
2026-04-28 19:48 52.83401 -1.23154 3218 ft 188 kts 47°
2026-04-28 19:48 52.84654 -1.22171 3435 ft 218 kts 13°
2026-04-28 19:48 52.86245 -1.22450 3694 ft 250 kts 344°
2026-04-28 19:48 52.87663 -1.24344 4238 ft 275 kts 311°
2026-04-28 19:49 52.88744 -1.27016 4996 ft 282 kts 306°
2026-04-28 19:49 52.89790 -1.29792 5742 ft 286 kts 305°
2026-04-28 19:49 52.90831 -1.32591 6245 ft 287 kts 305°
2026-04-28 19:49 52.91920 -1.35378 6393 ft 288 kts 308°
2026-04-28 19:50 52.94261 -1.40749 6400 ft 287 kts 309°
2026-04-28 19:50 52.95430 -1.43439 6404 ft 288 kts 309°
2026-04-28 19:50 52.96597 -1.46146 6400 ft 288 kts 308°
2026-04-28 19:51 52.97747 -1.48826 6401 ft 288 kts 308°
2026-04-28 19:51 52.98903 -1.51552 6413 ft 289 kts 308°
2026-04-28 19:51 53.00067 -1.54317 6698 ft 295 kts 308°
2026-04-28 19:51 53.01237 -1.57103 7589 ft 292 kts 308°
2026-04-28 19:52 53.02401 -1.59871 8428 ft 294 kts 308°
2026-04-28 19:52 53.03584 -1.62687 9223 ft 299 kts 308°
2026-04-28 19:52 53.04781 -1.65539 10055 ft 303 kts 307°
2026-04-28 19:52 53.05777 -1.68665 10758 ft 314 kts 291°
2026-04-28 19:53 53.06429 -1.72272 10997 ft 339 kts 287°
2026-04-28 19:53 53.07060 -1.76159 11444 ft 354 kts 287°
2026-04-28 19:53 53.07691 -1.80101 12154 ft 359 kts 287°
2026-04-28 19:53 53.08344 -1.84137 12960 ft 362 kts 287°
2026-04-28 19:54 53.09013 -1.88199 13775 ft 367 kts 288°
2026-04-28 19:54 53.09699 -1.92324 14524 ft 373 kts 288°
2026-04-28 19:54 53.10400 -1.96509 15246 ft 378 kts 288°
2026-04-28 19:54 53.11108 -2.00736 16031 ft 381 kts 288°
2026-04-28 19:55 53.11822 -2.05000 16808 ft 385 kts 289°
2026-04-28 19:55 53.12548 -2.09344 17471 ft 393 kts 289°
2026-04-28 19:55 53.13288 -2.13780 18182 ft 399 kts 289°
2026-04-28 19:55 53.14035 -2.18259 18901 ft 403 kts 290°
2026-04-28 19:56 53.15004 -2.22661 19531 ft 403 kts 300°
2026-04-28 19:56 53.16245 -2.26855 20241 ft 404 kts 302°
2026-04-28 19:56 53.17511 -2.30961 21067 ft 402 kts 302°
2026-04-28 19:56 53.18784 -2.35092 21934 ft 399 kts 302°
2026-04-28 19:57 53.20042 -2.39223 22739 ft 399 kts 302°
2026-04-28 19:57 53.21290 -2.43372 23499 ft 400 kts 302°
2026-04-28 19:57 53.22529 -2.47532 24189 ft 401 kts 302°
2026-04-28 19:57 53.23757 -2.51685 24369 ft 396 kts 302°
2026-04-28 19:58 53.24972 -2.55807 24409 ft 397 kts 302°
2026-04-28 19:58 53.26194 -2.59948 24415 ft 398 kts 302°
2026-04-28 19:58 53.27439 -2.64166 24438 ft 412 kts 302°
2026-04-28 19:58 53.28752 -2.68530 24431 ft 424 kts 305°
2026-04-28 19:59 53.30439 -2.72504 24414 ft 415 kts 319°
2026-04-28 19:59 53.32515 -2.75778 24421 ft 406 kts 329°
2026-04-28 19:59 53.34882 -2.78303 24589 ft 404 kts 338°
2026-04-28 19:59 53.37342 -2.80594 25232 ft 402 kts 338°
2026-04-28 20:00 53.39767 -2.82869 26029 ft 396 kts 338°
2026-04-28 20:00 53.42150 -2.85139 26860 ft 390 kts 338°
2026-04-28 20:00 53.44487 -2.87392 27669 ft 386 kts 338°
2026-04-28 20:00 53.46806 -2.89638 28263 ft 384 kts 338°
2026-04-28 20:01 53.49081 -2.91910 28386 ft 385 kts 336°
2026-04-28 20:01 53.53577 -2.96898 28430 ft 389 kts 334°
2026-04-28 20:02 53.58099 -3.01934 28432 ft 389 kts 335°
2026-04-28 20:02 53.62633 -3.06954 28432 ft 390 kts 335°
2026-04-28 20:03 53.67140 -3.11958 28413 ft 390 kts 335°
2026-04-28 20:03 53.71636 -3.17091 28406 ft 394 kts 328°
2026-04-28 20:04 53.75277 -3.24211 28432 ft 409 kts 309°
2026-04-28 20:04 53.78202 -3.32496 28425 ft 411 kts 307°
2026-04-28 20:05 53.80905 -3.41065 28436 ft 417 kts 299°
2026-04-28 20:05 53.83018 -3.50162 28432 ft 419 kts 297°
2026-04-28 20:06 53.85108 -3.59384 28434 ft 419 kts 297°
2026-04-28 20:06 53.87244 -3.68595 28425 ft 419 kts 297°
2026-04-28 20:07 53.89349 -3.77613 28115 ft 405 kts 298°
2026-04-28 20:07 53.90033 -3.80543 27960 ft 401 kts 298°
2026-04-28 20:07 53.91403 -3.86408 27482 ft 398 kts 298°
2026-04-28 20:07 53.92415 -3.90752 27144 ft 395 kts 297°
2026-04-28 20:08 53.93435 -3.95052 26772 ft 390 kts 301°
2026-04-28 20:08 53.94743 -3.98952 26413 ft 381 kts 310°
2026-04-28 20:08 53.96219 -4.02646 26075 ft 377 kts 311°
2026-04-28 20:08 53.97716 -4.06291 25731 ft 375 kts 311°
2026-04-28 20:09 53.99206 -4.09916 25391 ft 373 kts 311°
2026-04-28 20:09 54.00680 -4.13531 25055 ft 371 kts 311°
2026-04-28 20:09 54.02141 -4.17146 24723 ft 370 kts 311°
2026-04-28 20:09 54.03590 -4.20762 24469 ft 366 kts 310°
2026-04-28 20:10 54.05001 -4.24308 24424 ft 357 kts 310°
2026-04-28 20:10 54.06372 -4.27771 24407 ft 346 kts 310°
2026-04-28 20:10 54.07691 -4.31113 24409 ft 334 kts 311°
2026-04-28 20:10 54.08961 -4.34336 24405 ft 322 kts 311°
2026-04-28 20:11 54.10172 -4.37409 24412 ft 311 kts 311°
2026-04-28 20:11 54.11375 -4.40458 24296 ft 309 kts 311°
2026-04-28 20:11 54.12518 -4.43641 24178 ft 324 kts 300°
2026-04-28 20:11 54.13347 -4.47311 23673 ft 339 kts 295°
2026-04-28 20:12 54.14116 -4.51243 22737 ft 359 kts 293°
2026-04-28 20:12 54.14893 -4.55373 22039 ft 370 kts 292°
2026-04-28 20:12 54.15681 -4.59566 21622 ft 370 kts 292°
2026-04-28 20:12 54.16205 -4.62334 21409 ft 368 kts 292°
2026-04-28 20:13 54.17251 -4.67787 21070 ft 362 kts 293°
2026-04-28 20:13 54.18042 -4.71852 20731 ft 360 kts 293°
2026-04-28 20:13 54.18836 -4.75905 20384 ft 359 kts 293°
2026-04-28 20:13 54.19630 -4.79938 20056 ft 357 kts 293°
2026-04-28 20:14 54.20421 -4.83957 19755 ft 355 kts 293°
2026-04-28 20:14 54.21207 -4.87947 19443 ft 354 kts 293°
2026-04-28 20:14 54.21990 -4.91932 19138 ft 352 kts 293°
2026-04-28 20:14 54.22766 -4.95890 18829 ft 350 kts 293°
2026-04-28 20:15 54.23538 -4.99832 18500 ft 349 kts 293°
2026-04-28 20:15 54.24305 -5.03755 18155 ft 347 kts 293°
2026-04-28 20:15 54.25067 -5.07660 17835 ft 345 kts 293°
2026-04-28 20:15 54.25822 -5.11545 17515 ft 343 kts 292°
2026-04-28 20:16 54.26574 -5.15412 17183 ft 341 kts 292°
2026-04-28 20:16 54.27320 -5.19264 16867 ft 340 kts 292°
2026-04-28 20:16 54.28054 -5.23053 16555 ft 338 kts 292°
2026-04-28 20:16 54.28789 -5.26863 16244 ft 336 kts 292°
2026-04-28 20:17 54.29523 -5.30670 15935 ft 335 kts 292°
2026-04-28 20:17 54.30250 -5.34452 15630 ft 333 kts 292°
2026-04-28 20:17 54.30973 -5.38219 15305 ft 332 kts 292°
2026-04-28 20:17 54.31694 -5.41979 15000 ft 331 kts 292°
2026-04-28 20:18 54.32409 -5.45717 14716 ft 329 kts 292°
2026-04-28 20:18 54.32879 -5.48184 14528 ft 328 kts 292°
2026-04-28 20:18 54.33814 -5.53092 14131 ft 326 kts 292°
2026-04-28 20:18 54.34516 -5.56785 13807 ft 325 kts 291°
2026-04-28 20:19 54.35220 -5.60493 13317 ft 328 kts 291°
2026-04-28 20:19 54.35932 -5.64245 12813 ft 333 kts 291°
2026-04-28 20:19 54.36646 -5.68020 12353 ft 330 kts 291°
2026-04-28 20:19 54.37349 -5.71751 11887 ft 326 kts 291°
2026-04-28 20:20 54.38041 -5.75438 11439 ft 323 kts 290°
2026-04-28 20:20 54.38728 -5.79096 11005 ft 319 kts 290°
2026-04-28 20:20 54.39395 -5.82658 10574 ft 316 kts 290°
2026-04-28 20:20 54.40063 -5.86227 10119 ft 312 kts 290°
2026-04-28 20:21 54.40722 -5.89757 9643 ft 308 kts 290°
2026-04-28 20:21 54.41371 -5.93239 9169 ft 304 kts 290°
2026-04-28 20:21 54.42012 -5.96683 8698 ft 300 kts 289°
2026-04-28 20:21 54.42639 -6.00060 8305 ft 294 kts 289°
2026-04-28 20:22 54.43249 -6.03350 8033 ft 284 kts 289°
2026-04-28 20:22 54.43840 -6.06548 7775 ft 278 kts 289°
2026-04-28 20:22 54.44425 -6.09710 7536 ft 277 kts 289°
2026-04-28 20:22 54.45005 -6.12851 7289 ft 275 kts 289°
2026-04-28 20:23 54.45582 -6.15985 7052 ft 274 kts 289°
2026-04-28 20:23 54.46150 -6.19070 6809 ft 273 kts 289°
2026-04-28 20:23 54.46723 -6.22192 6454 ft 272 kts 289°
2026-04-28 20:23 54.47098 -6.24241 6197 ft 270 kts 288°
2026-04-28 20:24 54.47846 -6.28329 5696 ft 265 kts 288°
2026-04-28 20:24 54.48392 -6.31312 5435 ft 257 kts 288°
2026-04-28 20:24 54.48919 -6.34204 5173 ft 250 kts 288°
2026-04-28 20:24 54.49426 -6.36995 4945 ft 238 kts 289°
2026-04-28 20:25 54.49911 -6.39662 4663 ft 228 kts 289°
2026-04-28 20:25 54.50394 -6.42215 4334 ft 221 kts 296°
2026-04-28 20:25 54.51346 -6.44123 3992 ft 205 kts 335°
2026-04-28 20:25 54.52611 -6.45166 3685 ft 202 kts 340°
2026-04-28 20:26 54.53866 -6.46176 3486 ft 194 kts 340°
2026-04-28 20:26 54.55046 -6.47131 3406 ft 180 kts 340°
2026-04-28 20:26 54.56135 -6.48012 3384 ft 175 kts 341°
2026-04-28 20:26 54.57268 -6.48751 3342 ft 171 kts
2026-04-28 20:27 54.58277 -6.48125 3285 ft 153 kts 54°
2026-04-28 20:27 54.58835 -6.46542 3116 ft 159 kts 61°
2026-04-28 20:27 54.59395 -6.44909 2905 ft 157 kts 63°
2026-04-28 20:27 54.59891 -6.43261 2693 ft 153 kts 65°
2026-04-28 20:28 54.60350 -6.41629 2492 ft 150 kts 65°
2026-04-28 20:28 54.60797 -6.39995 2298 ft 149 kts 65°
2026-04-28 20:28 54.61224 -6.38414 2095 ft 143 kts 66°
2026-04-28 20:28 54.61644 -6.36849 1943 ft 143 kts 66°
2026-04-28 20:29 54.62061 -6.35295 1724 ft 143 kts 66°
2026-04-28 20:29 54.62477 -6.33746 1534 ft 143 kts 66°
2026-04-28 20:29 54.62894 -6.32192 1350 ft 143 kts 66°
2026-04-28 20:29 54.63318 -6.30611 1153 ft 146 kts 66°
2026-04-28 20:30 54.63747 -6.29017 958 ft 147 kts 66°
2026-04-28 20:30 54.64176 -6.27422 783 ft 145 kts 66°
2026-04-28 20:30 54.64597 -6.25842 637 ft 146 kts 66°
2026-04-28 20:30 54.64885 -6.24785 512 ft 148 kts 66°
2026-04-28 20:31 54.65312 -6.23205 300 ft 140 kts 66°
2026-04-28 20:31 54.65663 -6.21897 272 ft 75 kts 65°
2026-04-28 20:31 54.65792 -6.21416 271 ft 24 kts 62°
2026-04-28 20:31 54.65878 -6.21334 271 ft 9 kts 337°
2026-04-28 20:32 54.65920 -6.21366 273 ft 0 kts 335°
2026-04-28 20:33 54.65939 -6.21380 271 ft 8 kts 336°
2026-04-28 20:33 54.66003 -6.21315 273 ft 17 kts 63°
2026-04-28 20:33 54.66068 -6.21218 271 ft 12 kts 345°
2026-04-28 20:33 54.66125 -6.21292 271 ft 2 kts 262°
2026-04-28 20:34 54.66119 -6.21316 271 ft 2 kts 247°
2026-04-28 20:34 54.66113 -6.21339 271 ft 2 kts 245°
2026-04-28 20:34 54.66110 -6.21350 275 ft 0 kts 245°
2026-04-28 20:34 54.66110 -6.21351 274 ft 0 kts 245°